Location: São Paulo
(23.5507°S, 46.6334°W)
Time: 10:04:36
(UTC-03:00)

Transit 4A - Pass Details

Date: 18 February 2026
Orbit: 864 x 977 km, 66.8° (Epoch: 11 March)

Event Time Altitude Azimuth Distance (km) Brightness Sun altitude
Rises 13:41:36 0° 12° (NNE) 3,657 11.1 67.2°
Reaches altitude 10° 13:44:45 10° 26° (NNE) 2,715 10.5 66.6°
Maximum altitude 13:49:28 22° 74° (ENE) 1,985 9.7 65.6°
Drops below altitude 10° 13:54:08 10° 122° (ESE) 2,706 10.2 64.7°
Sets 13:57:15 0° 137° (SE) 3,642 10.8 64.0°
